TimeMDT,TemperatureF,Dew PointF,Humidity,Sea Level PressureIn,VisibilityMPH,Wind Direction,Wind SpeedMPH,Gust SpeedMPH,PrecipitationIn,Events,Conditions,WindDirDegrees,DateUTC
12:06 AM,73.4,60.8,65,29.81,10.0,NNW,20.7,32.2,N/A,,Clear,330,2013-06-12 06:06:00
12:53 AM,72.0,62.1,71,29.71,10.0,NNW,15.0,-,N/A,,Clear,340,2013-06-12 06:53:00
1:53 AM,70.0,62.1,76,29.73,10.0,NNW,8.1,-,N/A,,Clear,340,2013-06-12 07:53:00
2:53 AM,66.9,62.1,84,29.74,10.0,WNW,9.2,-,N/A,,Clear,300,2013-06-12 08:53:00
3:53 AM,66.0,62.1,87,29.79,10.0,NW,6.9,-,N/A,,Clear,320,2013-06-12 09:53:00
4:53 AM,64.9,62.1,90,29.83,10.0,NNW,11.5,-,N/A,,Clear,340,2013-06-12 10:53:00
5:53 AM,64.0,59.0,84,29.88,10.0,North,11.5,-,N/A,,Clear,350,2013-06-12 11:53:00
6:53 AM,66.0,57.0,73,29.89,10.0,North,9.2,-,N/A,,Clear,350,2013-06-12 12:53:00
7:53 AM,70.0,57.0,63,29.93,10.0,NW,12.7,-,N/A,,Clear,320,2013-06-12 13:53:00
8:53 AM,75.0,55.9,51,29.94,10.0,North,10.4,-,N/A,,Clear,350,2013-06-12 14:53:00
9:53 AM,80.1,51.1,36,29.93,10.0,NNW,11.5,-,N/A,,Clear,340,2013-06-12 15:53:00
10:53 AM,82.0,52.0,35,29.94,10.0,NW,6.9,-,N/A,,Clear,320,2013-06-12 16:53:00
11:53 AM,86.0,51.1,30,29.94,10.0,North,11.5,19.6,N/A,,Clear,350,2013-06-12 17:53:00
12:53 PM,88.0,51.1,28,29.94,10.0,NW,8.1,16.1,N/A,,Clear,320,2013-06-12 18:53:00
1:53 PM,90.0,46.9,23,29.93,10.0,North,9.2,17.3,N/A,,Clear,360,2013-06-12 19:53:00
2:53 PM,91.0,45.0,20,29.92,10.0,North,12.7,17.3,N/A,,Clear,10,2013-06-12 20:53:00
3:53 PM,90.0,48.0,24,29.92,10.0,NNE,12.7,-,N/A,,Clear,20,2013-06-12 21:53:00
4:53 PM,90.0,46.9,23,29.92,10.0,NE,11.5,20.7,N/A,,Clear,40,2013-06-12 22:53:00
5:53 PM,82.9,55.9,39,29.96,10.0,NE,24.2,-,N/A,,Clear,40,2013-06-12 23:53:00
6:53 PM,77.0,55.0,47,29.99,10.0,ENE,20.7,-,N/A,,Clear,60,2013-06-13 00:53:00
7:53 PM,70.0,52.0,53,30.02,10.0,NE,16.1,27.6,N/A,,Clear,50,2013-06-13 01:53:00
8:53 PM,66.9,52.0,59,30.02,10.0,NE,17.3,20.7,N/A,,Clear,50,2013-06-13 02:53:00
9:53 PM,64.9,51.1,61,30.04,10.0,ENE,15.0,-,N/A,,Clear,70,2013-06-13 03:53:00
10:53 PM,62.1,51.1,67,30.05,10.0,ENE,10.4,-,N/A,,Clear,70,2013-06-13 04:53:00
11:53 PM,60.1,50.0,69,30.06,10.0,ENE,9.2,-,N/A,,Clear,70,2013-06-13 05:53:00